Regional Weather Roundup
Issued by NWS

Home | Current Version | Previous Version | Text Only | Print | Product List | Glossary On
Versions: 1 2 3 4 5 6 7 8 9 10 11 12 13 14 15 16 17 18 19 20 21 22 23 24 25 26 27 28 29 30 31 32 33 34 35 36 37 38 39 40 41 42 43 44 45 46 47 48 49 50
000
ASCA42 TJSJ 250110
RWRPR
PUERTO RICO/U.S. VIRGIN ISLANDS HOURLY WEATHER ROUNDUP
NATIONAL WEATHER SERVICE SAN JUAN PR
900 PM AST WED MAY 24 2017

PRZ001>002-007>008-010-250200-
PUERTO RICO

CITY           SKY/WX    TMP DP  RH WIND       PRES   REMARKS
SAN JUAN LMM   PTCLDY    82  73  74 E5        30.05R
AGUADILLA      CLEAR     81  75  83 CALM      30.05R
CEIBA          CLOUDY    81  75  83 E9        30.07R
$$

VIZ001>002-250200-
U.S. VIRGIN ISLANDS

CITY           SKY/WX    TMP DP  RH WIND       PRES   REMARKS
CHARLOTTE AMA  CLOUDY    84  75  74 E9        30.05R HX  92
CHRISTIANSTED  PTCLDY    81  75  83 NE6       30.05R
$$

HOURLY WEATHER ROUNDUP FOR THE NEWS MEDIA

CITY           SKY/WX    TMP DP  RH WIND       PRES   REMARKS
ORLANDO        CLOUDY    74  71  91 SW16      29.72
NEW YORK       CLOUDY    59  52  77 E14       29.83R
NEWARK         CLOUDY    60  51  72 SE10      29.81R
CHICAGO        CLOUDY    59  50  72 N16G22    29.56R
HARTFORD       PTCLDY    57  49  74 E9        29.86R
BOSTON         PTCLDY    55  51  86 E6        29.86R
DALLAS         CLEAR     78  44  29 NE6       29.69F
PHILADELPHIA   CLOUDY    62  49  62 E12       29.78S
LOS ANGELES    PTSUNNY   61  54  77 W15       29.82S
WASHINGTON DC  CLOUDY    62  55  77 E14G21    29.69F


USA.gov is the U.S. government's official web portal to all federal, state and local government web resources and services.